QPF
0.16 0.24 0.21 0.16 0.14 0.13 0.13 0.12 0.12 0.09 0.05 0.04 0.05 0.05 0.06 0.06 0.05 0.03 0.02 0.02 0.01 0.02 0.02 0.02 0.02 0.02 0.01 0.02 0.01 0.01 0.01 0.01 0.02 0.02 0.03 0.04 0.05 0.05 0.05 0.04 0.05 0.06 0.08
0.11 0.22 0.26 0.16 0.13 0.12 0.10 0.09 0.08 0.07 0.05 0.03 0.04 0.04 0.03 0.05 0.04 0.02 0.02 0.01 0.01 0.01 0.01 0.01 0.01 0.01 0.01 0.01 0.01 0.01 0.01 0.01 0.01 0.01 0.02 0.03 0.04 0.05 0.05 0.05 0.05 0.06 0.07
0.06 0.12 0.20 0.12 0.07 0.08 0.07 0.05 0.04 0.04 0.04 0.04 0.04 0.03 0.03 0.04 0.03 0.02 0.02 0.01 0.01 0.01 0.01 0.01 0.01 0.01 0.01 0.01 0.01 0.01 0.01 0.01 0.01 0.01 0.01 0.01 0.02 0.02 0.03 0.04 0.05 0.05 0.05
0.06 0.08 0.17 0.11 0.05 0.05 0.05 0.04 0.03 0.04 0.04 0.04 0.03 0.02 0.02 0.02 0.03 0.02 0.02 0.01 0.01 0.01 0.01 0.00 0.00 0.01 0.01 0.01 0.01 0.01 0.00 0.00 0.01 0.01 0.01 0.00 0.00 0.01 0.01 0.02 0.04 0.05 0.05
0.07 0.09 0.15 0.09 0.03 0.03 0.03 0.04 0.04 0.04 0.03 0.03 0.02 0.02 0.01 0.01 0.02 0.01 0.01 0.01 0.01 0.01 0.01 0.00 0.00 0.00 0.00 0.01 0.01 0.00 0.00 0.00 0.00 0.00 0.00 0.01 0.00 0.00 0.00 0.00 0.01 0.02 0.02
0.07 0.08 0.09 0.06 0.03 0.02 0.02 0.03 0.04 0.03 0.03 0.03 0.02 0.02 0.02 0.01 0.01 0.00 0.00 0.00 0.00 0.00 0.00 0.00 0.00 0.00 0.00 0.00 0.01 0.01 0.00 0.00 0.00 0.00 0.00 0.00 0.00 0.00 0.00 0.00 0.00 0.01 0.01
0.06 0.05 0.04 0.04 0.03 0.02 0.02 0.03 0.04 0.04 0.03 0.02 0.03 0.02 0.01 0.01 0.00 0.00 0.00 0.00 0.00 0.00 0.00 0.00 0.00 0.00 0.00 0.00 0.00 0.00 0.01 0.00 0.00 0.00 0.00 0.00 0.00 0.00 0.00 0.00 0.00 0.00 0.00
0.09 0.05 0.03 0.03 0.03 0.03 0.02 0.02 0.03 0.03 0.02 0.01 0.02 0.02 0.01 0.00 0.00 0.00 0.00 0.00 0.00 0.00 0.00 0.00 0.00 0.00 0.00 0.00 0.00 0.00 0.00 0.00 0.00 0.00 0.00 0.00 0.00 0.00 0.00 0.00 0.00 0.00 0.00
0.06 0.03 0.03 0.04 0.03 0.03 0.02 0.01 0.02 0.02 0.01 0.01 0.01 0.01 0.00 0.00 0.00 0.00 0.00 0.00 0.00 0.00 0.00 0.00 0.00 0.00 0.00 0.00 0.00 0.00 0.00 0.00 0.00 0.00 0.00 0.00 0.00 0.00 0.00 0.00 0.00 0.00 0.00
0.04 0.03 0.04 0.03 0.03 0.03 0.01 0.00 0.01 0.01 0.00 0.00 0.00 0.00 0.00 0.00 0.00 0.00 0.00 0.00 0.00 0.00 0.00 0.00 0.00 0.00 0.00 0.00 0.00 0.00 0.00 0.00 0.00 0.00 0.00 0.00 0.00 0.00 0.00 0.00 0.00 0.00 0.00
0.05 0.04 0.03 0.03 0.03 0.03 0.01 0.00 0.00 0.00 0.00 0.00 0.00 0.00 0.00 0.00 0.00 0.00 0.00 0.00 0.00 0.00 0.00 0.01 0.01 0.00 0.00 0.00 0.00 0.00 0.00 0.00 0.00 0.00 0.00 0.00 0.00 0.00 0.00 0.00 0.00 0.00 0.00
0.07 0.05 0.03 0.02 0.02 0.02 0.01 0.00 0.00 0.00 0.00 0.00 0.00 0.00 0.00 0.00 0.00 0.00 0.00 0.00 0.00 0.00 0.01 0.01 0.01 0.00 0.00 0.00 0.00 0.00 0.00 0.00 0.00 0.00 0.00 0.00 0.00 0.00 0.00 0.00 0.00 0.00 0.00
0.08 0.06 0.03 0.02 0.02 0.01 0.01 0.00 0.00 0.00 0.00 0.00 0.00 0.00 0.00 0.00 0.00 0.00 0.00 0.00 0.00 0.00 0.01 0.00 0.00 0.00 0.00 0.00 0.00 0.00 0.00 0.00 0.00 0.00 0.00 0.00 0.00 0.00 0.00 0.00 0.00 0.00 0.00
0.10 0.08 0.03 0.01 0.01 0.01 0.01 0.00 0.00 0.00 0.00 0.00 0.00 0.00 0.00 0.00 0.00 0.01 0.01 0.01 0.00 0.00 0.00 0.00 0.00 0.00 0.00 0.00 0.00 0.00 0.00 0.00 0.00 0.00 0.00 0.00 0.00 0.00 0.00 0.00 0.00 0.00 0.00
0.07 0.06 0.04 0.02 0.01 0.01 0.01 0.01 0.00 0.00 0.00 0.00 0.00 0.00 0.00 0.01 0.01 0.01 0.01 0.00 0.00 0.00 0.00 0.00 0.00 0.00 0.00 0.00 0.00 0.00 0.00 0.00 0.00 0.00 0.00 0.00 0.00 0.00 0.00 0.00 0.00 0.00 0.00
0.04 0.03 0.02 0.02 0.01 0.01 0.01 0.01 0.00 0.00 0.00 0.00 0.00 0.00 0.01 0.01 0.01 0.01 0.00 0.00 0.00 0.00 0.00 0.00 0.00 0.00 0.00 0.00 0.00 0.00 0.00 0.00 0.00 0.00 0.00 0.00 0.00 0.00 0.00 0.00 0.00 0.00 0.00
0.04 0.03 0.02 0.02 0.01 0.01 0.01 0.01 0.01 0.01 0.00 0.00 0.00 0.01 0.01 0.01 0.00 0.00 0.00 0.00 0.00 0.00 0.00 0.00 0.00 0.00 0.00 0.00 0.00 0.00 0.00 0.00 0.00 0.00 0.00 0.00 0.00 0.00 0.00 0.00 0.00 0.00 0.00
0.06 0.03 0.02 0.01 0.02 0.01 0.01 0.02 0.02 0.01 0.01 0.01 0.00 0.01 0.01 0.00 0.00 0.00 0.00 0.00 0.00 0.00 0.00 0.00 0.00 0.00 0.00 0.00 0.00 0.00 0.00 0.00 0.00 0.00 0.00 0.00 0.00 0.00 0.00 0.00 0.00 0.00 0.00
0.06 0.04 0.02 0.02 0.02 0.02 0.02 0.03 0.03 0.02 0.01 0.00 0.01 0.01 0.00 0.00 0.00 0.00 0.00 0.00 0.00 0.00 0.00 0.00 0.00 0.00 0.00 0.00 0.00 0.00 0.00 0.00 0.00 0.00 0.00 0.00 0.00 0.00 0.00 0.00 0.00 0.00 0.00
0.07 0.05 0.03 0.02 0.02 0.02 0.03 0.03 0.02 0.01 0.00 0.01 0.01 0.01 0.01 0.01 0.01 0.01 0.01 0.01 0.01 0.01 0.01 0.01 0.01 0.01 0.01 0.01 0.01 0.01 0.00 0.00 0.00 0.00 0.00 0.00 0.00 0.00 0.00 0.00 0.00 0.00 0.00
0.07 0.06 0.04 0.03 0.03 0.03 0.04 0.04 0.03 0.02 0.02 0.02 0.02 0.03 0.03 0.03 0.03 0.03 0.04 0.04 0.03 0.03 0.02 0.02 0.02 0.01 0.01 0.01 0.01 0.01 0.01 0.01 0.01 0.00 0.00 0.00 0.00 0.00 0.00 0.00 0.00 0.00 0.00
0.05 0.05 0.04 0.04 0.05 0.06 0.06 0.06 0.05 0.05 0.04 0.03 0.03 0.04 0.05 0.06 0.06 0.06 0.06 0.07 0.05 0.03 0.02 0.01 0.01 0.01 0.00 0.01 0.01 0.02 0.02 0.02 0.01 0.00 0.00 0.00 0.01 0.01 0.01 0.00 0.00 0.00 0.00
0.07 0.06 0.06 0.08 0.10 0.10 0.10 0.11 0.11 0.11 0.10 0.08 0.06 0.06 0.08 0.09 0.08 0.06 0.05 0.05 0.05 0.04 0.02 0.01 0.01 0.01 0.02 0.02 0.02 0.02 0.02 0.02 0.02 0.01 0.01 0.01 0.01 0.00 0.00 0.00 0.00 0.00 0.00
0.07 0.07 0.08 0.11 0.15 0.16 0.14 0.14 0.13 0.12 0.12 0.13 0.09 0.08 0.08 0.08 0.08 0.07 0.06 0.05 0.04 0.03 0.04 0.03 0.03 0.04 0.04 0.04 0.02 0.02 0.01 0.01 0.01 0.01 0.01 0.01 0.01 0.00 0.00 0.00 0.00 0.00 0.00
0.05 0.07 0.08 0.09 0.12 0.15 0.13 0.11 0.11 0.09 0.09 0.09 0.08 0.08 0.10 0.10 0.09 0.07 0.06 0.05 0.05 0.05 0.05 0.05 0.06 0.06 0.05 0.04 0.03 0.03 0.02 0.01 0.01 0.02 0.01 0.01 0.01 0.01 0.01 0.01 0.01 0.00 0.00
0.04 0.06 0.08 0.08 0.09 0.11 0.11 0.10 0.09 0.08 0.06 0.04 0.03 0.05 0.06 0.06 0.06 0.06 0.05 0.05 0.05 0.05 0.05 0.04 0.04 0.03 0.02 0.02 0.01 0.01 0.01 0.01 0.01 0.01 0.01 0.00 0.00 0.00 0.00 0.00 0.00 0.00 0.00
MSLP
1010.64 1010.62 1010.66 1010.76 1010.91 1011.14 1011.45 1011.83 1012.29 1012.80 1013.35 1013.90 1014.41 1014.88 1015.27 1015.60 1015.87 1016.09 1016.31 1016.52 1016.75 1017.01 1017.28 1017.58 1017.87 1018.16 1018.42 1018.66 1018.87 1019.06 1019.23 1019.37 1019.49 1019.58 1019.64 1019.64 1019.59 1019.48 1019.33 1019.14 1018.95 1018.77 1018.63
1011.11 1011.19 1011.28 1011.37 1011.47 1011.61 1011.81 1012.09 1012.48 1012.96 1013.52 1014.10 1014.68 1015.19 1015.63 1015.96 1016.21 1016.40 1016.56 1016.73 1016.92 1017.17 1017.46 1017.78 1018.11 1018.42 1018.70 1018.93 1019.12 1019.27 1019.40 1019.52 1019.64 1019.75 1019.85 1019.91 1019.92 1019.87 1019.75 1019.57 1019.35 1019.11 1018.89
1011.62 1011.82 1011.98 1012.10 1012.17 1012.23 1012.34 1012.52 1012.82 1013.25 1013.77 1014.36 1014.95 1015.50 1015.95 1016.29 1016.53 1016.69 1016.82 1016.95 1017.13 1017.38 1017.68 1018.03 1018.38 1018.71 1018.99 1019.21 1019.36 1019.47 1019.56 1019.66 1019.77 1019.91 1020.05 1020.18 1020.27 1020.29 1020.22 1020.06 1019.83 1019.55 1019.26
1012.06 1012.38 1012.64 1012.81 1012.89 1012.91 1012.93 1013.03 1013.24 1013.59 1014.07 1014.62 1015.20 1015.74 1016.20 1016.54 1016.77 1016.91 1017.02 1017.15 1017.33 1017.58 1017.91 1018.27 1018.65 1018.98 1019.26 1019.45 1019.57 1019.64 1019.69 1019.77 1019.88 1020.03 1020.22 1020.42 1020.58 1020.68 1020.67 1020.55 1020.32 1020.02 1019.67
1012.33 1012.78 1013.14 1013.38 1013.49 1013.50 1013.49 1013.51 1013.65 1013.92 1014.32 1014.83 1015.38 1015.90 1016.34 1016.67 1016.90 1017.05 1017.16 1017.29 1017.48 1017.75 1018.09 1018.47 1018.85 1019.19 1019.46 1019.63 1019.72 1019.75 1019.78 1019.83 1019.93 1020.11 1020.33 1020.59 1020.82 1020.98 1021.03 1020.96 1020.75 1020.44 1020.07
1012.37 1012.92 1013.40 1013.72 1013.89 1013.93 1013.90 1013.88 1013.96 1014.16 1014.51 1014.96 1015.46 1015.95 1016.38 1016.71 1016.94 1017.10 1017.22 1017.37 1017.57 1017.85 1018.19 1018.59 1018.97 1019.31 1019.56 1019.72 1019.79 1019.80 1019.80 1019.83 1019.93 1020.11 1020.37 1020.66 1020.94 1021.15 1021.26 1021.23 1021.07 1020.77 1020.39
1012.16 1012.80 1013.37 1013.79 1014.03 1014.11 1014.10 1014.08 1014.13 1014.30 1014.59 1014.99 1015.46 1015.92 1016.34 1016.67 1016.91 1017.08 1017.22 1017.38 1017.60 1017.88 1018.23 1018.62 1019.01 1019.34 1019.58 1019.72 1019.78 1019.78 1019.76 1019.79 1019.88 1020.06 1020.32 1020.63 1020.93 1021.19 1021.34 1021.36 1021.23 1020.97 1020.61
1011.75 1012.45 1013.10 1013.59 1013.91 1014.06 1014.10 1014.11 1014.16 1014.31 1014.58 1014.96 1015.40 1015.85 1016.26 1016.60 1016.85 1017.04 1017.20 1017.37 1017.59 1017.88 1018.22 1018.60 1018.97 1019.28 1019.52 1019.66 1019.72 1019.71 1019.69 1019.71 1019.79 1019.96 1020.21 1020.51 1020.82 1021.09 1021.27 1021.32 1021.24 1021.03 1020.72
1011.22 1011.96 1012.65 1013.21 1013.60 1013.82 1013.92 1013.98 1014.06 1014.23 1014.50 1014.88 1015.31 1015.76 1016.18 1016.53 1016.80 1017.01 1017.18 1017.36 1017.58 1017.86 1018.18 1018.54 1018.88 1019.19 1019.42 1019.56 1019.62 1019.63 1019.62 1019.63 1019.70 1019.85 1020.07 1020.34 1020.63 1020.89 1021.08 1021.16 1021.12 1020.97 1020.71
1010.67 1011.41 1012.12 1012.73 1013.17 1013.46 1013.63 1013.76 1013.89 1014.10 1014.40 1014.79 1015.23 1015.70 1016.12 1016.49 1016.78 1017.01 1017.19 1017.38 1017.59 1017.84 1018.14 1018.46 1018.79 1019.07 1019.30 1019.45 1019.52 1019.54 1019.54 1019.56 1019.61 1019.73 1019.92 1020.15 1020.39 1020.62 1020.80 1020.89 1020.89 1020.79 1020.60
1010.16 1010.88 1011.60 1012.22 1012.70 1013.05 1013.29 1013.48 1013.68 1013.94 1014.29 1014.70 1015.17 1015.65 1016.10 1016.48 1016.79 1017.03 1017.22 1017.41 1017.60 1017.83 1018.10 1018.40 1018.69 1018.96 1019.18 1019.34 1019.43 1019.47 1019.48 1019.50 1019.54 1019.62 1019.76 1019.93 1020.13 1020.31 1020.46 1020.56 1020.58 1020.53 1020.40
1009.72 1010.41 1011.10 1011.72 1012.22 1012.61 1012.91 1013.17 1013.44 1013.76 1014.15 1014.61 1015.10 1015.60 1016.06 1016.46 1016.78 1017.03 1017.24 1017.42 1017.61 1017.82 1018.06 1018.32 1018.59 1018.85 1019.06 1019.22 1019.32 1019.38 1019.41 1019.42 1019.45 1019.51 1019.59 1019.70 1019.84 1019.97 1020.08 1020.16 1020.20 1020.19 1020.12
1009.30 1009.95 1010.61 1011.20 1011.71 1012.13 1012.48 1012.81 1013.15 1013.53 1013.97 1014.46 1014.98 1015.49 1015.96 1016.38 1016.71 1016.98 1017.20 1017.39 1017.57 1017.77 1017.99 1018.23 1018.48 1018.71 1018.92 1019.08 1019.19 1019.26 1019.29 1019.31 1019.32 1019.34 1019.38 1019.44 1019.51 1019.58 1019.65 1019.71 1019.75 1019.76 1019.74
1008.82 1009.43 1010.04 1010.61 1011.12 1011.57 1011.97 1012.36 1012.76 1013.20 1013.69 1014.21 1014.75 1015.27 1015.76 1016.18 1016.53 1016.82 1017.05 1017.26 1017.45 1017.65 1017.87 1018.09 1018.32 1018.54 1018.72 1018.88 1018.99 1019.06 1019.09 1019.10 1019.10 1019.09 1019.09 1019.10 1019.11 1019.13 1019.16 1019.19 1019.22 1019.24 1019.25
1008.19 1008.75 1009.31 1009.86 1010.37 1010.85 1011.30 1011.76 1012.23 1012.73 1013.26 1013.81 1014.36 1014.90 1015.39 1015.82 1016.19 1016.51 1016.77 1017.01 1017.23 1017.44 1017.66 1017.88 1018.09 1018.29 1018.46 1018.59 1018.69 1018.75 1018.77 1018.77 1018.75 1018.73 1018.69 1018.66 1018.63 1018.61 1018.59 1018.59 1018.59 1018.61 1018.63
1007.33 1007.83 1008.36 1008.89 1009.41 1009.93 1010.45 1010.97 1011.52 1012.08 1012.65 1013.23 1013.80 1014.35 1014.85 1015.30 1015.69 1016.04 1016.35 1016.62 1016.88 1017.13 1017.37 1017.59 1017.79 1017.96 1018.11 1018.21 1018.28 1018.32 1018.32 1018.31 1018.27 1018.23 1018.17 1018.12 1018.06 1018.00 1017.95 1017.91 1017.88 1017.87 1017.88
1006.21 1006.65 1007.14 1007.67 1008.22 1008.80 1009.39 1009.99 1010.62 1011.24 1011.87 1012.48 1013.07 1013.63 1014.14 1014.61 1015.04 1015.43 1015.79 1016.12 1016.43 1016.72 1016.98 1017.21 1017.40 1017.55 1017.66 1017.73 1017.77 1017.77 1017.75 1017.72 1017.67 1017.61 1017.55 1017.48 1017.40 1017.32 1017.24 1017.16 1017.10 1017.06 1017.03
1004.85 1005.24 1005.71 1006.25 1006.84 1007.49 1008.16 1008.86 1009.56 1010.26 1010.94 1011.59 1012.20 1012.77 1013.31 1013.81 1014.27 1014.71 1015.13 1015.53 1015.89 1016.23 1016.52 1016.76 1016.94 1017.07 1017.15 1017.17 1017.17 1017.13 1017.09 1017.04 1016.98 1016.92 1016.86 1016.79 1016.70 1016.61 1016.51 1016.40 1016.30 1016.20 1016.13
1003.37 1003.71 1004.17 1004.73 1005.38 1006.10 1006.86 1007.65 1008.43 1009.20 1009.93 1010.61 1011.25 1011.85 1012.41 1012.94 1013.45 1013.94 1014.42 1014.88 1015.30 1015.68 1016.00 1016.25 1016.43 1016.53 1016.57 1016.56 1016.52 1016.45 1016.39 1016.32 1016.26 1016.21 1016.16 1016.09 1016.01 1015.91 1015.79 1015.66 1015.51 1015.37 1015.23
1001.90 1002.21 1002.66 1003.25 1003.96 1004.75 1005.60 1006.46 1007.32 1008.15 1008.92 1009.64 1010.31 1010.93 1011.51 1012.08 1012.63 1013.17 1013.70 1014.21 1014.68 1015.10 1015.44 1015.70 1015.88 1015.97 1015.98 1015.94 1015.87 1015.78 1015.70 1015.63 1015.58 1015.54 1015.50 1015.45 1015.38 1015.28 1015.15 1014.98 1014.79 1014.59 1014.39
1000.59 1000.89 1001.36 1001.98 1002.74 1003.59 1004.49 1005.42 1006.33 1007.20 1008.01 1008.75 1009.43 1010.07 1010.68 1011.27 1011.85 1012.43 1013.01 1013.56 1014.06 1014.51 1014.87 1015.14 1015.31 1015.38 1015.39 1015.33 1015.25 1015.16 1015.08 1015.02 1014.98 1014.96 1014.94 1014.90 1014.84 1014.74 1014.60 1014.40 1014.17 1013.91 1013.65
999.60 999.90 1000.39 1001.04 1001.83 1002.72 1003.66 1004.62 1005.55 1006.43 1007.25 1008.00 1008.69 1009.33 1009.96 1010.56 1011.17 1011.78 1012.37 1012.94 1013.47 1013.93 1014.30 1014.57 1014.74 1014.81 1014.81 1014.77 1014.69 1014.61 1014.55 1014.51 1014.50 1014.50 1014.50 1014.48 1014.42 1014.31 1014.15 1013.93 1013.66 1013.35 1013.02
999.03 999.35 999.86 1000.53 1001.34 1002.23 1003.17 1004.12 1005.03 1005.90 1006.70 1007.44 1008.12 1008.76 1009.38 1010.00 1010.61 1011.22 1011.83 1012.40 1012.92 1013.38 1013.75 1014.02 1014.19 1014.27 1014.29 1014.26 1014.21 1014.17 1014.14 1014.13 1014.15 1014.17 1014.18 1014.17 1014.11 1013.99 1013.80 1013.55 1013.24 1012.88 1012.51
998.93 999.29 999.82 1000.50 1001.29 1002.16 1003.06 1003.96 1004.82 1005.64 1006.40 1007.10 1007.76 1008.38 1008.99 1009.59 1010.20 1010.80 1011.39 1011.95 1012.46 1012.90 1013.25 1013.52 1013.69 1013.79 1013.84 1013.85 1013.84 1013.84 1013.85 1013.89 1013.93 1013.97 1013.99 1013.97 1013.89 1013.74 1013.53 1013.24 1012.89 1012.50 1012.08
999.32 999.72 1000.27 1000.93 1001.68 1002.49 1003.32 1004.14 1004.92 1005.66 1006.35 1006.99 1007.61 1008.20 1008.79 1009.37 1009.96 1010.53 1011.10 1011.62 1012.10 1012.51 1012.85 1013.10 1013.29 1013.41 1013.49 1013.54 1013.59 1013.64 1013.69 1013.76 1013.83 1013.87 1013.88 1013.84 1013.74 1013.56 1013.30 1012.97 1012.59 1012.16 1011.71
1000.16 1000.60 1001.15 1001.78 1002.47 1003.19 1003.91 1004.62 1005.29 1005.94 1006.54 1007.12 1007.68 1008.23 1008.78 1009.34 1009.89 1010.44 1010.97 1011.45 1011.89 1012.27 1012.58 1012.83 1013.02 1013.16 1013.27 1013.37 1013.47 1013.56 1013.66 1013.75 1013.82 1013.86 1013.85 1013.78 1013.62 1013.40 1013.09 1012.72 1012.30 1011.84 1011.37
Thickness
5755 5753 5752 5750 5746 5742 5739 5737 5735 5734 5734 5732 5730 5728 5726 5726 5725 5726 5727 5727 5726 5726 5725 5723 5722 5721 5720 5718 5718 5717 5715 5713 5714 5711 5708 5710 5712 5713 5714 5714 5714 5714 5714
5750 5748 5747 5746 5744 5740 5737 5735 5734 5733 5734 5733 5731 5729 5727 5725 5724 5725 5725 5725 5724 5723 5722 5721 5719 5718 5717 5715 5714 5713 5710 5710 5710 5706 5701 5698 5700 5706 5710 5710 5710 5710 5710
5749 5745 5744 5743 5742 5739 5737 5736 5734 5733 5733 5732 5730 5727 5724 5722 5720 5720 5721 5722 5722 5721 5720 5718 5717 5716 5714 5712 5711 5710 5708 5705 5705 5705 5700 5693 5690 5694 5701 5704 5706 5706 5706
5751 5746 5744 5742 5741 5739 5738 5735 5733 5733 5732 5731 5729 5726 5722 5718 5718 5719 5719 5720 5720 5719 5718 5716 5715 5713 5712 5710 5709 5708 5706 5703 5699 5700 5700 5697 5695 5690 5689 5695 5699 5701 5701
5752 5747 5745 5743 5741 5740 5737 5735 5733 5731 5731 5730 5728 5726 5722 5720 5719 5719 5717 5717 5717 5717 5716 5714 5713 5711 5709 5708 5706 5705 5703 5701 5698 5696 5694 5693 5691 5690 5686 5683 5688 5692 5695
5751 5747 5745 5742 5739 5738 5736 5734 5731 5730 5730 5728 5727 5725 5722 5720 5718 5716 5715 5714 5714 5714 5714 5712 5711 5709 5707 5705 5703 5702 5700 5698 5696 5694 5692 5689 5686 5684 5682 5680 5680 5681 5687
5751 5747 5744 5741 5738 5736 5735 5733 5731 5728 5728 5727 5726 5725 5723 5722 5719 5717 5715 5713 5712 5711 5711 5710 5709 5707 5705 5703 5701 5699 5697 5696 5693 5691 5689 5687 5685 5684 5681 5678 5675 5676 5679
5754 5750 5747 5744 5741 5738 5736 5734 5730 5728 5727 5726 5725 5725 5724 5722 5721 5719 5717 5714 5712 5711 5710 5709 5707 5705 5703 5701 5699 5697 5695 5693 5691 5689 5687 5684 5683 5682 5680 5677 5673 5669 5669
5753 5751 5748 5746 5743 5740 5737 5735 5732 5729 5727 5726 5725 5724 5724 5723 5721 5719 5717 5715 5713 5711 5709 5707 5705 5703 5701 5699 5697 5694 5692 5690 5688 5686 5684 5682 5680 5679 5678 5676 5674 5668 5662
5752 5750 5749 5747 5745 5742 5739 5736 5733 5730 5728 5727 5726 5725 5724 5723 5721 5718 5716 5714 5712 5710 5708 5705 5703 5701 5698 5696 5694 5691 5690 5687 5685 5683 5681 5679 5677 5676 5675 5673 5671 5668 5663
5754 5752 5750 5748 5745 5743 5740 5736 5732 5730 5727 5726 5725 5724 5722 5722 5720 5718 5716 5714 5711 5709 5706 5704 5701 5698 5696 5694 5691 5689 5687 5684 5682 5680 5678 5676 5675 5672 5671 5669 5667 5665 5661
5758 5755 5753 5748 5745 5742 5739 5736 5733 5731 5729 5727 5725 5723 5722 5720 5718 5716 5715 5713 5710 5707 5705 5702 5699 5697 5694 5692 5689 5687 5685 5682 5679 5677 5675 5673 5672 5669 5667 5665 5663 5661 5659
5757 5754 5752 5749 5746 5744 5741 5738 5735 5733 5730 5727 5724 5722 5720 5719 5717 5715 5713 5711 5708 5705 5703 5700 5697 5695 5693 5690 5687 5685 5683 5680 5678 5675 5673 5671 5668 5665 5663 5661 5658 5657 5656
5758 5755 5753 5751 5749 5747 5743 5740 5736 5734 5731 5728 5724 5721 5720 5719 5717 5714 5712 5710 5707 5704 5701 5698 5696 5693 5691 5688 5686 5683 5680 5678 5676 5674 5671 5669 5666 5663 5660 5657 5655 5652 5650
5758 5757 5755 5754 5751 5748 5745 5742 5738 5735 5732 5728 5724 5722 5720 5718 5716 5713 5710 5708 5705 5703 5700 5696 5694 5691 5689 5686 5683 5681 5678 5675 5672 5670 5669 5667 5665 5662 5659 5656 5652 5649 5645
5760 5760 5759 5756 5753 5751 5748 5744 5740 5737 5734 5729 5725 5722 5719 5716 5714 5711 5708 5705 5703 5700 5697 5695 5692 5689 5687 5686 5683 5679 5675 5672 5669 5667 5665 5664 5662 5660 5657 5654 5651 5647 5642
5764 5762 5762 5759 5757 5755 5752 5746 5743 5739 5733 5729 5725 5722 5719 5715 5713 5711 5707 5703 5701 5698 5695 5693 5690 5687 5685 5683 5681 5678 5673 5670 5667 5664 5662 5661 5660 5657 5654 5651 5649 5646 5643
5767 5767 5766 5763 5761 5759 5754 5749 5744 5738 5733 5728 5725 5722 5719 5715 5712 5708 5705 5702 5699 5696 5693 5690 5688 5684 5683 5681 5678 5675 5671 5667 5665 5663 5660 5657 5655 5653 5650 5647 5644 5641 5639
5770 5771 5771 5768 5763 5759 5755 5749 5742 5737 5733 5729 5725 5723 5719 5715 5711 5707 5704 5701 5697 5694 5691 5689 5686 5682 5680 5678 5675 5672 5667 5664 5662 5660 5658 5655 5652 5650 5647 5642 5638 5636 5636
5769 5769 5769 5766 5762 5759 5755 5747 5742 5737 5733 5731 5728 5724 5720 5715 5711 5707 5704 5700 5696 5693 5690 5686 5684 5681 5678 5676 5673 5668 5663 5659 5658 5656 5654 5652 5649 5647 5643 5637 5633 5630 5630
5769 5769 5766 5763 5761 5759 5753 5745 5741 5739 5738 5734 5728 5723 5719 5715 5711 5706 5702 5698 5694 5689 5686 5683 5681 5679 5677 5674 5670 5666 5660 5657 5653 5651 5649 5648 5646 5642 5638 5633 5629 5627 5625
5764 5764 5761 5759 5758 5756 5751 5744 5741 5741 5737 5731 5725 5720 5716 5712 5708 5702 5698 5694 5690 5686 5682 5678 5676 5675 5674 5671 5668 5664 5659 5655 5650 5647 5646 5643 5640 5637 5633 5629 5626 5623 5618
5761 5761 5758 5754 5752 5751 5749 5744 5741 5737 5732 5726 5721 5717 5713 5709 5705 5699 5694 5689 5686 5682 5678 5675 5672 5671 5670 5667 5665 5661 5656 5652 5647 5644 5642 5638 5634 5630 5627 5624 5621 5616 5611
5754 5755 5752 5748 5744 5744 5744 5742 5737 5733 5728 5721 5716 5712 5708 5704 5700 5697 5692 5687 5683 5679 5675 5672 5669 5667 5664 5662 5660 5656 5652 5647 5642 5638 5635 5631 5627 5623 5621 5618 5614 5610 5606
5746 5747 5745 5741 5738 5737 5735 5735 5732 5727 5721 5715 5711 5706 5702 5698 5694 5691 5688 5685 5682 5680 5675 5671 5668 5663 5660 5660 5657 5651 5646 5642 5637 5632 5626 5622 5618 5615 5612 5609 5606 5603 5599
5736 5736 5735 5733 5731 5730 5727 5726 5725 5722 5716 5708 5704 5701 5697 5693 5689 5685 5681 5681 5678 5676 5672 5669 5665 5662 5660 5657 5652 5646 5641 5636 5631 5623 5618 5614 5611 5608 5605 5602 5598 5595 5592